Location: Châtillon
(48.5426°N, 2.8089°E)
Time: 00:52:59
(UTC+00:00)

Daily predictions for brighter satellites

Satellite Brightness Start Highest point End
(mag) Time Altitude Azimuth Time Altitude Azimuth Time Altitude Azimuth
ATLAS 3B R/B 3.6 03:41:57 42° NNE 03:41:57 42° NNE 03:47:00 10° NE
CZ-4C R/B 4.0 03:38:51 31° NNE 03:39:32 32° NNE 03:46:29 10° E
H-2A R/B 4.0 03:45:55 10° NE 03:49:59 25° E 03:54:06 10° SSE
SL-16 R/B 4.5 04:04:09 14° N 04:04:09 14° N 04:04:57 10° NNE
COSMOS 2428 3.4 04:04:27 51° ESE 04:04:40 51° ESE 04:10:12 10° NE
Cosmos 2333 Rocket 3.8 04:08:53 26° NNE 04:08:53 26° NNE 04:11:23 10° NNE
ARIANE 5 R/B 4.0 04:01:38 10° NNE 04:06:27 36° E 04:11:14 10° SSE
CENTAUR R/B 3.8 04:04:39 38° NNW 04:07:27 51° NE 04:16:08 10° ESE
BREEZE M DEB (TANK) 3.8 04:09:07 78° SSW 04:09:07 78° SSW 04:25:26 10° ESE
Cosmos 2278 Rocket 2.8 04:11:18 49° NE 04:11:46 50° NE 04:17:15 10° SE
Cosmos 2221 4.2 04:14:15 31° ESE 04:14:15 31° ESE 04:17:11 10° SE
Cosmos 2237 Rocket 4.1 04:15:18 10° SSE 04:20:01 28° ESE 04:24:46 10° NE
Cosmos 1331 Rocket 4.3 04:23:10 64° E 04:23:10 64° E 04:27:55 10° SSE
Cosmos 1048 Rocket 4.2 04:24:54 64° E 04:24:54 64° E 04:29:38 10° NNE
Meteor 2-17 Rocket 4.5 04:23:29 34° N 04:26:19 74° E 04:32:21 10° SSE
Cosmos 1092 Rocket 4.1 04:22:08 19° N 04:26:45 71° E 04:33:01 10° SSE
SL-08 R/B 4.5 04:25:27 10° SE 04:29:46 39° ENE 04:31:40 27° NNE
Lacrosse 5 rocket 2.7 04:35:42 37° NE 04:35:42 37° NE 04:38:25 10° NE
Cosmos 2322 3.6 04:34:58 73° N 04:34:58 73° N 04:40:12 10° NNE
SKYMED 2 4.2 04:32:05 10° SSE 04:36:19 54° ENE 04:36:30 54° ENE
USA 267 3.8 04:33:55 10° E 04:40:05 46° N 04:41:48 38° NNW
Cosmos 1634 Rocket 4.4 04:34:14 10° S 04:40:20 63° E 04:46:31 10° NNE
Cosmos 1428 Rocket 4.3 04:38:34 48° NNW 04:40:23 79° W 04:46:30 10° S
Cosmos 1943 Rocket 2.9 04:46:58 27° N 04:49:45 50° NE 04:55:05 10° SE
Cosmos 2219 Rocket 2.9 04:52:17 38° NNW 04:52:17 38° NNW 04:56:25 10° NNE
Cosmos 2360 Rocket 3.8 04:53:37 21° N 04:53:37 21° N 04:56:06 10° NNE
IRS-P3 Rocket 4.4 04:47:31 10° NNE 04:52:45 73° WNW 04:54:09 49° SW
Cosmos 1953 Rocket 3.9 04:48:20 10° S 04:52:46 65° E 04:57:13 10° NNE
Meteor 2-3 Rocket 3.5 04:52:55 32° SSW 04:55:31 68° WNW 05:01:07 10° N
SL-19 R/B 4.1 04:53:46 10° NNE 04:59:13 85° ESE 05:04:27 10° SSW
Cosmos 2285 Rocket 4.3 04:53:46 10° S 05:00:03 69° ESE 05:06:26 10° NNE
USA 281 3.4 04:53:54 10° NNE 05:00:30 71° ESE 05:07:02 10° SSW
USA 229 DEB 3.6 04:59:43 48° W 05:01:09 59° NW 05:08:00 10° NE
USA 229 3.6 04:59:44 48° W 05:01:12 59° NW 05:08:03 10° NE
Cosmos 1110 Rocket 4.1 05:03:20 54° WSW 05:03:21 55° WSW 05:08:30 10° S
Cosmos 1627 Rocket 4.4 05:00:13 10° NNW 05:06:32 65° W 05:12:47 10° S
IRS-1C 4.0 05:02:13 10° N 05:07:32 69° WNW 05:12:49 10° SSW
Cosmos 494 Rocket 4.3 05:08:36 43° NW 05:08:36 43° NW 05:12:50 10° NNE
NOSS 3-1 (A) 4.2 05:10:44 31° NNW 05:11:09 31° NNW 05:16:55 10° NE
SJ-12 4.1 05:08:13 10° NNE 05:12:15 68° ESE 05:16:16 10° S
JB-3 4.3 05:08:25 10° SSE 05:12:28 87° E 05:13:53 40° N
ATLAS 5 CENTAUR R/B 3.6 05:12:16 10° S 05:14:56 22° ESE 05:17:48 10° ENE
Cosmos 2322 Rocket 4.0 05:16:57 16° NNW 05:16:57 16° NNW 05:19:08 10° N
SL-16 R/B 4.4 05:14:27 10° SSE 05:19:06 27° ESE 05:23:45 10° NE
CZ-2D R/B 3.1 05:16:14 10° N 05:20:09 70° WNW 05:24:04 10° SSW
Cosmos 1500 3.3 05:17:24 10° S 05:20:53 65° E 05:24:25 10° NNE
ERS-1 4.4 05:17:16 10° N 05:22:10 60° WNW 05:27:02 10° SSW
CZ-3 R/B 4.2 05:09:37 13° WSW 05:22:14 26° SSW 05:28:49 10° SSE
Cosmos 1302 Rocket 3.9 05:19:22 26° NNW 05:22:24 83° WSW 05:27:37 10° SSE
Cosmos 1437 Rocket 2.5 05:20:37 10° S 05:24:17 88° ESE 05:27:59 10° NNE
COSMO-SKYMED 1 2.7 05:20:12 10° S 05:24:24 50° W 05:25:07 45° WNW
CZ-4C R/B 3.1 05:23:59 22° NW 05:29:02 79° NE 05:37:36 10° SE
H-2A R/B 2.1 05:24:53 10° N 05:29:37 47° WNW 05:34:22 10° SW
Cosmos 2369 Rocket 3.8 05:25:00 10° NNW 05:30:01 31° NE 05:35:01 10° ESE
ATLAS 3B R/B 3.9 05:29:12 24° NW 05:31:45 29° NNW 05:38:17 10° NE
ARGOS 3.1 05:26:20 10° NNE 05:31:46 86° ESE 05:37:08 10° SSW
Cosmos 1842 Rocket 3.5 05:31:56 17° NNW 05:35:18 68° W 05:39:44 10° S
BREEZE-M DEB (TANK) 2.8 05:35:17 38° W 05:36:39 83° SSW 05:45:26 10° ESE
NOSS 0 Rocket 3.9 05:30:42 10° SW 05:36:54 65° WNW 05:43:08 10° NNE
Cosmos 1992 Rocket 4.3 05:32:12 12° NNW 05:37:00 68° ENE 05:42:11 10° SSE
Cosmos 1602 4.1 05:33:35 10° S 05:37:11 59° E 05:40:49 10° NNE
IRS-P3 4.3 05:33:43 10° N 05:38:50 48° WNW 05:43:54 10° SW
Cosmos 1980 3.6 05:33:39 10° SSW 05:39:18 75° WNW 05:45:01 10° NNE
CZ-2D R/B 3.5 05:36:43 10° NNE 05:40:22 64° ESE 05:44:00 10° S
SAR-Lupe-2 4.5 05:39:59 10° NNE 05:43:30 50° E 05:46:59 10° S
Meteor 2-6 Rocket 4.2 05:39:00 10° NNW 05:44:40 61° W 05:50:08 10° S
Cosmos 1076 Rocket 3.4 05:40:33 10° SSW 05:44:50 66° WNW 05:49:11 10° N
NOSS 3-2 (C) 4.3 05:39:17 16° NW 05:45:18 66° NE 05:53:49 10° SE
Geosat 4.0 05:40:25 10° NNE 05:45:29 89° ESE 05:50:31 10° SSW
ARIANE 5 R/B 3.0 05:40:44 10° N 05:45:30 37° WNW 05:50:16 10° SW
IKONOS-2 4.4 05:41:23 10° SSE 05:45:33 89° WSW 05:49:46 10° NNW
Cosmos 614 Rocket 4.4 05:41:08 10° S 05:46:16 65° ESE 05:51:27 10° NNE
USA 215 4.3 05:40:37 10° ENE 05:46:51 45° SE 05:53:03 10° SSW
DELTA 2 DEB (DPAF) 4.1 05:43:53 10° SSE 05:48:10 81° ENE 05:52:29 10° NNW
COSMOS 2428 3.4 05:46:32 23° W 05:49:10 33° NW 05:54:20 10° NNE
FengYun 1-2 T 4.2 05:44:47 10° N 05:50:18 60° WNW 05:55:44 10° SSW
Cosmos 2221 3.6 05:50:59 23° W 05:50:59 23° W 05:53:54 10° SW
Cosmos 2333 Rocket 3.8 05:50:54 16° NW 05:51:11 16° NW 05:54:46 10° N
CZ-2C R/B 3.3 05:49:11 10° NNE 05:52:56 61° E 05:56:43 10° S
GENESIS II 4.1 05:50:03 14° SW 05:53:14 61° NW 05:57:05 10° NE
Cosmos 2278 Rocket 3.0 05:53:11 22° WNW 05:55:35 30° WSW 06:00:26 10° SSW
CENTAUR R/B 3.4 05:51:49 16° NW 05:58:38 64° WSW 06:07:38 10° SSE
Cosmos 2266 Rocket 3.9 05:54:33 10° N 06:00:39 82° W 06:06:49 10° S
Helios 1B rocket 2.2 05:58:52 10° NNE 06:02:52 82° WNW 06:06:51 10° SSW
SeaSat 1 3.5 05:58:57 10° ESE 06:03:32 41° NE 06:08:10 10° NNW
Cosmos 2237 Rocket 2.3 05:58:14 10° SW 06:03:46 54° WNW 06:09:20 10° NNE
Cosmos 1378 3.8 06:03:21 23° NW 06:04:33 29° W 06:07:36 10° SSW
NOSS 3-2 (A) 4.2 06:00:41 15° NW 06:07:10 67° SW 06:15:47 10° SSE
SL-08 R/B 4.2 06:03:40 10° SSW 06:07:36 27° W 06:10:33 15° NW
Intercosmos 25 Rocket 3.6 06:07:05 10° SSW 06:10:46 72° WNW 06:16:26 10° N
Lacrosse 5 rocket 2.5 06:10:48 18° WNW 06:13:13 30° NNW 06:17:07 10° NE
CZ-3B R/B 4.4 06:08:37 16° WNW 06:13:36 70° SW 06:39:04 10° SE
Spot 4 Rocket 4.3 06:11:25 10° N 06:16:19 45° WNW 06:21:10 10° SW
Cosmos 2151 3.9 06:12:44 10° SW 06:16:19 26° WNW 06:19:56 10° NNW
Meteor 2-12 Rocket 4.5 06:10:21 10° NNW 06:16:22 62° W 06:22:23 10° S
Cosmos 1461 3.0 06:17:17 10° SW 06:21:43 64° NW 06:26:03 10° NNE
Cosmos 2297 3.7 06:16:21 10° NNW 06:22:02 86° ENE 06:27:40 10° SSE
USA 267 3.4 06:16:09 10° ESE 06:22:41 78° NNE 06:29:08 11° NW
Cosmos 1151 Rocket 3.0 06:19:17 10° N 06:23:38 88° E 06:27:59 10° S
Cosmos 1666 3.3 06:22:17 10° SW 06:25:22 28° WNW 06:28:29 10° NNW
PSLV R/B 4.2 06:22:35 10° N 06:26:25 32° WNW 06:30:12 10° SW
Meteor 1-31 Rocket 2.6 06:28:28 10° N 06:32:16 79° WNW 06:36:05 10° SSW
Meteor 1-25 Rocket 4.4 06:26:56 10° S 06:32:46 88° E 06:38:33 10° NNE
NOSS 2-1 (D) 4.4 06:30:01 10° SSW 06:32:54 36° SE 06:35:38 10° NE
Cosmos 1943 Rocket 3.0 06:28:31 10° NW 06:33:13 29° WSW 06:37:55 10° SSW
USA 238 DEB 4.1 06:28:05 10° NW 06:35:24 79° NE 06:43:14 10° SE
USA 238 4.1 06:28:09 10° NW 06:35:28 79° NE 06:43:16 10° SE
ERS-2 2.7 06:33:57 10° NNW 06:36:22 23° WNW 06:38:46 10° WSW
Cosmos 2219 Rocket 4.0 06:34:02 10° NW 06:36:29 13° NNW 06:39:01 10° N
Elektron 3 4.4 06:35:31 11° NW 06:38:15 55° SW 06:42:47 10° SSE
Cosmos 1269 Rocket 4.0 06:35:20 10° SW 06:40:33 64° WNW 06:45:49 10° NNE
USA 281 3.9 06:38:55 10° NNE 06:44:32 31° NW 06:50:08 10° WSW
Meteor 1-27 Rocket 4.0 06:41:35 10° NNW 06:46:53 48° W 06:52:08 10° SSW
SMAP 3.2 06:43:17 10° N 06:47:52 55° WNW 06:52:23 10° SSW
Okean 1 3.6 06:45:14 10° NNW 06:48:56 44° W 06:52:34 10° SSW
Meteor 1-20 Rocket 4.2 06:46:27 10° SSW 06:51:49 56° WNW 06:57:13 10° N
AQUARIUS 4.2 06:47:35 10° N 06:52:01 61° WNW 06:56:24 10° SSW
Meteor 2-4 Rocket 4.0 06:47:32 10° N 06:53:21 81° ENE 06:59:15 10° SSE
CZ-4C R/B 3.8 06:51:24 10° S 06:55:29 50° W 06:59:37 10° NNW
Cosmos 1328 Rocket 3.6 06:52:04 10° N 06:56:31 90° NNE 07:00:58 10° S
